Location: Moscow
(30.9132°N, 94.8252°W)
Time: 12:53:02
(UTC+00:00)

IRAS Rocket - Pass Details

Date: 15 November 2025
Orbit: 845 x 876 km, 100.1° (Epoch: 11 December)

Event Time Altitude Azimuth Distance (km) Brightness Sun altitude
Rises 00:54:53 0° 164° (SSE) 3,445 7.3 -20.0°
Reaches altitude 10° 00:57:15 10° 164° (SSE) 2,507 6.6 -20.5°
Maximum altitude 01:02:50 90° 255° (WSW) 870 4.2 -21.7°
Drops below altitude 10° 01:08:24 10° 346° (NNW) 2,501 6.7 -22.9°
Sets 01:10:46 0° 346° (NNW) 3,436 7.4 -23.4°
